Regional Weather Roundup
Issued by NWS Upton, NY

Home | Current Version | Previous Version | Text Only | Print | Product List | Glossary On
Versions: 1 2 3 4 5 6 7 8 9 10 11 12 13 14 15 16 17 18 19 20 21 22 23 24 25 26 27 28 29 30 31 32 33 34 35 36 37 38 39 40 41 42 43 44 45 46 47 48 49 50
000
ASUS41 KOKX 291109
RWROKX

REGIONAL WEATHER ROUNDUP
NATIONAL WEATHER SERVICE NEW YORK NY
700 AM EDT SAT JUL 29 2017

NOTE: "FAIR" INDICATES FEW OR NO CLOUDS BELOW 12,000 FEET WITH NO
SIGNIFICANT WEATHER AND/OR OBSTRUCTIONS TO VISIBILITY.

NYZ071-072-176-178-NJZ106-104-291200-
NEW YORK CITY METRO AREA

CITY           SKY/WX    TMP DP  RH WIND       PRES   REMARKS
Central Park   CLOUDY    70  50  49 NE13G18   29.80S
Bronx Bot Gard   N/A     68  48  49 NE3       29.79S
LaGuardia APRT CLOUDY    70  55  59 NE18G24   29.76S
Kennedy INTL   MOSUNNY   70  57  64 NE21G26   29.76S
Breezy Point     N/A     68 N/A N/A NE14G21     N/A
Newark/Liberty LGT RAIN  70  51  51 NE21      29.76S
Teterboro      CLOUDY    70  51  51 NE10G21   29.76S
$$

NYZ177-179-078>081-291200-
LONG ISLAND NEW YORK

CITY           SKY/WX    TMP DP  RH WIND       PRES   REMARKS
Jones Beach      N/A     64 N/A N/A NE18        N/A
Matinecock PT    N/A     70 N/A N/A NE24        N/A
Farmingdale    CLOUDY    66  57  72 NE13      29.76F
MacArthur/ISP  LGT RAIN  66  60  81 NE15      29.76F
Shirley        LGT RAIN  65  61  87 N8        29.78S
Mt Sinai Harb    N/A    N/A N/A N/A NE13G21     N/A
Westhampton    LGT RAIN  66  59  78 NE13      29.79S
East Hampton   CLOUDY    67  58  72 NE15      29.78S
Montauk          N/A     68  62  81 NE14G24   29.80F
$$

NYZ052-065-067-291200-
HUDSON VALLEY

CITY           SKY/WX    TMP DP  RH WIND       PRES   REMARKS
White Plains   CLOUDY    67  49  52 N10       29.79S
Larchmont Harb   N/A     68 N/A N/A N18         N/A
Croton O-T Hud   N/A     68 N/A N/A NE5G10      N/A
Newburgh       PTSUNNY   64  55  72 NE9       29.85S
Montgomery     CLOUDY    65  52  62 NE14      29.84S
Poughkeepsie   CLOUDY    63  53  70 NE9       29.84R
Albany         CLOUDY    59  53  80 N5        29.92R
$$

NJZ001-105-106-008-010-013-015-019>022-104-291200-
NEW JERSEY

CITY           SKY/WX    TMP DP  RH WIND       PRES   REMARKS
Newark/Liberty LGT RAIN  70  51  51 NE21      29.76S
Teterboro      CLOUDY    70  51  51 NE10G21   29.76S
Caldwell       CLOUDY    68  52  56 NE8G18    29.79R
Somerville     CLOUDY    70  53  54 NE15G22   29.75R
Linden         FAIR      71  49  47 NE13      29.76R
Perth Amboy      N/A     70 N/A N/A NE13        N/A
Sussex         CLOUDY    65  55  70 NE7       29.83R
Andover          N/A     65  55  70 NE8       29.82R
Trenton        PTSUNNY   66  58  75 NE10G22   29.73S
Millville      CLOUDY    71  71 100 NE12      29.65S
Atlantic City  HVY RAIN  71  70  96 NE18G25   29.64F FOG
Wrightstown    CLOUDY    66  62  89 N14       29.70R
Toms River     CLOUDY    66  63  90 NE16G23   29.72S
Belmar         LGT RAIN  65  61  87 NE12G23   29.74S
$$

PAZ047>061-062-071-291200-
EASTERN PENNSYLVANIA

CITY           SKY/WX    TMP DP  RH WIND       PRES   REMARKS
Philadelphia   CLOUDY    68  62  81 NE20G28   29.71R
Allentown      PTSUNNY   68  54  60 NE12      29.79R
Scranton       CLOUDY    65  56  72 NE5       29.86R
$$

CTZ002-004>006-009-010-012-RIZ004-006-007-MAZ004-011-015-291200-
SOUTHERN NEW ENGLAND
 IN CT

CITY           SKY/WX    TMP DP  RH WIND       PRES   REMARKS
Bradley INTL   CLOUDY    62  52  69 N8        29.87S
Hartford       CLOUDY    65  53  65 N13       29.85S
Danbury        CLOUDY    66  50  56 NE9       29.84R
Wtrbury/Oxford PTSUNNY   63  46  55 NE15G23   29.83S
Bridgeport     LGT RAIN  68  53  58 NE17      29.80R
Meriden        CLOUDY    64  52  64 NE7       29.83F
New Haven      CLOUDY    67  53  61 N15       29.80F
Chester        CLOUDY    66  55  68 NE13      29.82F
Groton         CLOUDY    68  55  63 NE18      29.79F
Wilimantic     CLOUDY    65  54  67 NE13      29.85R

 IN RI

CITY           SKY/WX    TMP DP  RH WIND       PRES   REMARKS
Providence     CLOUDY    66  54  65 NE18      29.85S
Block Island   CLOUDY    66  62  87 NE18G24   29.79F
Westerly       CLOUDY    67  57  70 N15G24    29.81F
 IN MA

CITY           SKY/WX    TMP DP  RH WIND       PRES   REMARKS
Boston         CLOUDY    65  54  67 NE15      29.88R
Worcester      CLOUDY    59  48  67 NE10      29.90R
Westfield      CLOUDY    61  53  75 N7        29.88S
Provincetown   RAIN      62  60  93 NE14      29.84S FOG
Nantucket      LGT RAIN  67  67 100 NE8       29.79S FOG
$$

ANZ330-335-338-340-345-350-353-355-291200-
COASTAL MARINE OBSERVATIONS


STATION/POSITION TIME  SKY/WX   TEMP    WIND        PRES    VSBY  WAVE
                                AIR SEA DIR/SP/G                  HT/PER
                 (UTC)          (F)     (DEG/KT/KT) (MB)    (MI)  (FT/S)
NY HARB ENTRANCE 0950            70 71   30/ 23/ 29 1005.8          4/ 4
20 S FIRE ISLAND 1050            69 74   40/ 27/ 29 1005.3          5/ 5
GREAT SOUTH BAY  1015            68 76   30/ 16/ 19   N/A
23 SSW MONTAUK P 0950            69 72              1007.6          3/ 7
15 E BARNEGAT LI 1030               74                N/A           5/ 5
HUDSON CANYON    0950            71 72  100/ 16/ 19 1004.3          3/ 6
KINGS POINT      1042            70 73   80/  9/ 15 1007.8
EXECUTION ROCKS  1045            71      70/ 17/ 23   N/A
CENTRAL LI SOUND 1000            69      40/ 16/ 21   N/A           2
EASTERN LI SOUND NOT AVBL
ROBBINS REEF     1036                    40/ 24/ 31 1007.6
$$


>>>>>>>>>>>>>>>>>>>>>>>>>>>> KEY <<<<<<<<<<<<<<<<<<<<<<<<<<<
>                                                          <
>     SKY/WX - Sky Condition/Present Weather               <
>     TMP    - Temperature in Fahrenheit                   <
>     DP     - Dew Point in Fahrenheit                     <
>     RH     - Relative Humidity in Percent                <
>     WIND   - Direction (from) and Speed in MPH           <
>     PRES   - Mean Sea Level Pressure (inches of Hg)      <
>     WCI    - Wind Chill Index                            <
>     VSB    - VISIBILITY IN MILES                         <
>     HX     - HEAT INDEX                                  <
>     TC     - TEMPERATURE IN CELSIUS                      <
>     VRB    - VARIABLE WIND DIRECTION                     <
>                                                          <
>>>>>>>>>>>>>>>>>>>>>>>>>>>> KEY <<<<<<<<<<<<<<<<<<<<<<<<<<<



USA.gov is the U.S. government's official web portal to all federal, state and local government web resources and services.